Weather History for Nome, AK

Change the Weather History Date:

Saturday, February 18, 2012

  Actual Average Record
Temperature  
Mean Temperature 27 °F -  
Max Temperature 30 °F 16 °F 39 °F (1934)
Min Temperature 24 °F - -36 °F (1984)
Degree Days  
Heating Degree Days 38 57  
Month to date heating degree days 907 1048  
Since 1 July heating degree days 9703 8719  
Cooling Degree Days 0    
Month to date cooling degree days 0  
Year to date cooling degree days 0  
Moisture  
Dew Point 22 °F    
Average Humidity 0    
Maximum Humidity 0    
Minimum Humidity 0    
Precipitation  
Precipitation 0.01 in 0.04 in 0.49 in (1944)
Month to date precipitation 1.05 0.61  
Year to date precipitation 1.21 1.55  
Snow  
Snow 0.10 in 0.40 in 8.20 in (2009)
Month to date snowfall 18.1 7.7  
Since 1 July snowfall 65.7 52.2  
Snow Depth 30.00 in    
Sea Level Pressure  
Sea Level Pressure 29.45 in    
Wind  
Wind Speed 13 mph (ENE)    
Max Wind Speed 20 mph    
Max Gust Speed 24 mph    
Visibility 9 miles    
Events Snow    
T = Trace of Precipitation, MM = Missing Value Source: NWS Daily Summary

Daily Weather History Graph

Daily Weather History Graph

Search for Another Location

Airport:

Trip Planner

Search our weather history database for the weather conditions in past years. The results will help you decide how hot, cold, wet, or windy it might be!

Date:

Astronomy

Feb. 18, 2012 Rise Set
Actual Time 9:49 AM AKST 6:43 PM AKST
Civil Twilight 8:58 AM AKST 7:34 PM AKST
Nautical Twilight 8:01 AM AKST 8:31 PM AKST
Astronomical Twilight 7:05 AM AKST 9:27 PM AKST
Moon 8:38 AM AKST (2/18) 2:58 PM AKST (2/18)
Length of Visible Light 10h 36m
Length of Day
8h 53m
Waning Crescent, 10% of the Moon is Illuminated
Feb 18
Waning Crescent
Feb 21
New
Feb 29
First Quarter
Mar 8
Full
Mar 14
Last Quarter

Hourly Weather History & Observations

Time (AKST) Temp. Windchill Dew Point Humidity Pressure Visibility Wind Dir Wind Speed Gust Speed Precip Events Conditions
12:16 AM 26.6 °F 15.2 °F 19.4 °F 74% 29.50 in 9.0 mi ENE 13.8 mph - 0.00 in Snow Light Snow
12:48 AM 26.6 °F 14.3 °F 19.4 °F 74% 29.50 in 9.0 mi ENE 16.1 mph - 0.00 in Snow Light Snow
12:53 AM 26.1 °F 13.6 °F 19.9 °F 78% 29.50 in 9.0 mi ENE 16.1 mph - 0.00 in Snow Light Snow
1:17 AM 26.6 °F 14.7 °F 19.4 °F 74% 29.50 in 9.0 mi ENE 15.0 mph - 0.00 in Snow Light Snow
1:53 AM 26.1 °F 13.6 °F 19.9 °F 78% 29.50 in 9.0 mi ENE 16.1 mph - 0.00 in Snow Light Snow
2:15 AM 26.6 °F 15.2 °F 21.2 °F 80% 29.50 in 9.0 mi East 13.8 mph - 0.00 in   Overcast
3:53 AM 26.1 °F 13.1 °F 19.9 °F 78% 29.48 in 10.0 mi ENE 17.3 mph - N/A   Overcast
4:53 AM 25.0 °F 12.6 °F 19.9 °F 81% 29.47 in 10.0 mi East 15.0 mph - N/A   Overcast
5:53 AM 25.0 °F 12.2 °F 19.9 °F 81% 29.47 in 10.0 mi East 16.1 mph - N/A   Mostly Cloudy
6:53 AM 25.0 °F 13.6 °F 19.0 °F 78% 29.47 in 10.0 mi East 12.7 mph - N/A   Mostly Cloudy
7:53 AM 26.1 °F 15.0 °F 19.9 °F 78% 29.46 in 10.0 mi ENE 12.7 mph - N/A   Scattered Clouds
8:53 AM 27.0 °F 15.6 °F 21.0 °F 78% 29.46 in 10.0 mi ENE 13.8 mph - N/A   Mostly Cloudy
9:53 AM 27.0 °F 16.1 °F 21.9 °F 81% 29.46 in 9.0 mi ENE 12.7 mph - 0.00 in Snow Light Snow
10:53 AM 25.0 °F 14.8 °F 19.9 °F 81% 29.46 in 10.0 mi NE 10.4 mph - 0.00 in   Mostly Cloudy
11:50 AM 26.6 °F 16.2 °F 24.8 °F 93% 29.45 in 7.0 mi NE 11.5 mph - 0.00 in   Overcast
11:53 AM 26.1 °F 15.0 °F 24.1 °F 92% 29.46 in 5.0 mi NE 12.7 mph - 0.00 in   Overcast
12:53 PM 27.0 °F 16.1 °F 23.0 °F 85% 29.46 in 10.0 mi ENE 12.7 mph - 0.00 in   Overcast
1:53 PM 26.1 °F 15.6 °F 25.0 °F 96% 29.45 in 7.0 mi ENE 11.5 mph - 0.00 in   Overcast
2:53 PM 27.0 °F 16.7 °F 24.1 °F 89% 29.45 in 10.0 mi ENE 11.5 mph - N/A   Overcast
3:34 PM 26.6 °F 16.2 °F 24.8 °F 93% 29.44 in 10.0 mi ENE 11.5 mph - N/A   Overcast
3:53 PM 28.0 °F 17.5 °F 24.1 °F 85% 29.43 in 10.0 mi ENE 12.7 mph - 0.00 in Snow Light Snow
4:53 PM 28.9 °F 18.6 °F 24.1 °F 82% 29.42 in 10.0 mi ENE 12.7 mph - 0.00 in   Mostly Cloudy
5:53 PM 28.9 °F 19.8 °F 23.0 °F 78% 29.41 in 10.0 mi ENE 10.4 mph - N/A   Mostly Cloudy
6:53 PM 28.9 °F 19.2 °F 21.9 °F 75% 29.41 in 10.0 mi ENE 11.5 mph - N/A   Overcast
7:53 PM 28.0 °F 17.0 °F 21.9 °F 78% 29.40 in 10.0 mi NE 13.8 mph - N/A   Overcast
8:53 PM 28.0 °F 17.5 °F 21.9 °F 78% 29.39 in 10.0 mi NE 12.7 mph - N/A   Overcast
9:53 PM 30.0 °F 19.1 °F 21.9 °F 72% 29.38 in 10.0 mi NE 15.0 mph - N/A   Overcast
10:53 PM 28.0 °F 18.1 °F 21.0 °F 75% 29.37 in 10.0 mi NE 11.5 mph - N/A   Overcast
11:53 PM 27.0 °F 16.1 °F 19.0 °F 72% 29.37 in 10.0 mi NE 12.7 mph - N/A   Overcast